Location: Buttermere
(51.3333°N, 1.5167°W)
Time: 03:56:56
(UTC+00:00)

NOSS 3-2 (C) - Pass Details

Date: 18 September 2020
Orbit: 795 x 1418 km, 63.4° (Epoch: 02 October)

Event Time Altitude Azimuth Distance (km) Brightness Sun altitude
Rises 20:32:24 0° 315° (NW) 3,913 8.1 -21.5°
Reaches altitude 10° 20:34:56 10° 313° (NW) 3,037 7.2 -21.8°
Maximum altitude 20:42:18 74° 231° (SW) 1,314 4.1 -22.8°
Enters shadow 20:46:12 35° 155° (SSE) 2,009 4.6 -23.3°
